{"data":{"norad_id":38749,"intl_designator":"2012-045A","name":"INTELSAT 21 (IS-21)","alt_names":[],"object_type":"PAYLOAD","status":"ACTIVE","operator":null,"country":"ITSO","launch_date":"2012-08-19","launch_site_code":"SEAL","launch_vehicle":null,"mission":null,"orbit_class":"UNKNOWN","rcs_meters":52.4,"size_class":null,"mass_kg":null,"dimensions":null,"purposes":["comms"],"wikipedia_slug":null,"has_3d_model":false,"image_url":null,"decayed_at":null,"tle_current":{"epoch":"2026-09-20T03:03:28.084896Z","epoch_age_seconds":46657,"freshness":"FRESH","line1":"1 38749U 12045A   26263.12740839 -.00000289  00000+0  00000+0 0  9994","line2":"2 38749   0.0159 131.2776 0002081  38.0799 177.5595  1.00271603 51478","mean_motion":1.00271603,"eccentricity":0.0002081,"inclination_deg":0.0159,"raan_deg":131.2776,"arg_perigee_deg":38.0799,"mean_anomaly_deg":177.5595,"bstar":0,"rev_number":5147,"period_min":1436.0995106461,"perigee_km":35777.871491136,"apogee_km":35795.420473813,"semimajor_km":42164.782982475,"source":"CELESTRAK","updated_at":"2026-09-20T09:00:35.520644Z"}}}